Location: *
(51.2167°N, 10.0667°E)
Time: 05:47:17
(UTC+00:00)

Cosmos 2297 - Pass Details

Date: 12 December 2019
Orbit: 836 x 858 km, 71.0° (Epoch: 23 January)

Event Time Altitude Azimuth Distance (km) Brightness Sun altitude
Rises 15:56:09 0° 331° (NNW) 3,435 6.9 -6.6°
Reaches altitude 10° 15:58:45 10° 338° (NNW) 2,492 6.1 -7.0°
Maximum altitude 16:04:11 43° 50° (NE) 1,186 4.1 -7.7°
Drops below altitude 10° 16:09:34 10° 121° (ESE) 2,465 5.8 -8.5°
Sets 16:12:07 0° 128° (SE) 3,393 6.6 -8.8°
